Torna al catalogo

STARLINK-6235

AttivoComunicazioniVLEO
NORAD 57094·PAYLOAD·🇺🇸 United States

Lanciato Jun 22, 2023 da Vandenberg Space Force Base

Loading…

Prossimi Passaggi (prossime 24 ore)

TLE

AggiornatoSource: CelesTrak SupGP

Epoca: Sep 15, 2026, 02:45 UTC

1 57094C 23088AY  26258.11506944  .00027048  00000+0  97956-3 0  2586
2 57094  42.9999 106.3340 0001520 266.5740 344.0913 15.27568817    19

Traccia STARLINK-6235 in tempo reale con AllMySat

Download on the App Store